Time,TemperatureF,DewpointF,PressureIn,WindDirection,WindDirectionDegrees,WindSpeedMPH,WindSpeedGustMPH,Humidity,HourlyPrecipIn,Conditions,Clouds,dailyrainin,SoftwareType,DateUTC
2013-03-28 00:00:00,41.2,28.0,30.12,NW,308,4.0,7.0,59,0.00,,,0.00,weatherlink.com 1.10,2013-03-28 04:00:00,
2013-03-28 00:15:00,41.1,28.0,30.12,NW,309,5.0,8.0,59,0.00,,,0.00,weatherlink.com 1.10,2013-03-28 04:15:00,
2013-03-28 00:30:00,41.0,28.0,30.12,WNW,292,6.0,8.0,60,0.00,,,0.00,weatherlink.com 1.10,2013-03-28 04:30:00,
2013-03-28 00:45:00,41.3,28.0,30.12,NNW,346,10.0,13.0,60,0.00,,,0.00,weatherlink.com 1.10,2013-03-28 04:45:00,
2013-03-28 01:00:00,41.3,28.0,30.12,NW,311,6.0,12.0,60,0.00,,,0.00,weatherlink.com 1.10,2013-03-28 05:00:00,
2013-03-28 01:15:00,41.3,29.0,30.12,WNW,302,9.0,16.0,61,0.00,,,0.00,weatherlink.com 1.10,2013-03-28 05:15:00,
2013-03-28 01:30:00,40.9,29.0,30.12,NW,307,7.0,10.0,62,0.00,,,0.00,weatherlink.com 1.10,2013-03-28 05:30:00,
2013-03-28 01:45:00,40.5,29.0,30.12,WNW,302,5.0,12.0,63,0.00,,,0.00,weatherlink.com 1.10,2013-03-28 05:45:00,
2013-03-28 02:00:00,40.2,29.0,30.12,North,5,8.0,10.0,64,0.00,,,0.00,weatherlink.com 1.10,2013-03-28 06:00:00,
2013-03-28 02:15:00,40.0,29.0,30.12,NW,314,8.0,12.0,64,0.00,,,0.00,weatherlink.com 1.10,2013-03-28 06:15:00,
2013-03-28 02:30:00,39.8,29.0,30.12,NW,310,6.0,10.0,65,0.00,,,0.00,weatherlink.com 1.10,2013-03-28 06:30:00,
2013-03-28 02:45:00,39.8,29.0,30.12,NW,323,9.0,10.0,66,0.00,,,0.00,weatherlink.com 1.10,2013-03-28 06:45:00,
2013-03-28 03:00:00,39.8,30.0,30.12,NW,315,5.0,10.0,67,0.00,,,0.00,weatherlink.com 1.10,2013-03-28 07:00:00,
2013-03-28 03:15:00,39.6,29.0,30.12,WNW,295,3.0,9.0,67,0.00,,,0.00,weatherlink.com 1.10,2013-03-28 07:15:00,
2013-03-28 03:30:00,39.5,29.0,30.12,WNW,290,5.0,7.0,66,0.00,,,0.00,weatherlink.com 1.10,2013-03-28 07:30:00,
2013-03-28 03:45:00,39.7,29.0,30.11,NW,307,8.0,10.0,67,0.00,,,0.00,weatherlink.com 1.10,2013-03-28 07:45:00,
2013-03-28 04:00:00,40.0,30.0,30.11,NW,314,4.0,12.0,67,0.00,,,0.00,weatherlink.com 1.10,2013-03-28 08:00:00,
2013-03-28 04:15:00,40.4,30.0,30.11,WNW,301,5.0,11.0,66,0.00,,,0.00,weatherlink.com 1.10,2013-03-28 08:15:00,
2013-03-28 04:30:00,40.2,30.0,30.11,NW,309,5.0,8.0,66,0.00,,,0.00,weatherlink.com 1.10,2013-03-28 08:30:00,
2013-03-28 04:45:00,39.8,30.0,30.11,West,274,1.0,5.0,67,0.00,,,0.00,weatherlink.com 1.10,2013-03-28 08:45:00,
2013-03-28 05:00:00,39.3,29.0,30.11,WNW,288,2.0,5.0,68,0.00,,,0.00,weatherlink.com 1.10,2013-03-28 09:00:00,
2013-03-28 05:15:00,39.3,29.0,30.11,WNW,300,3.0,7.0,67,0.00,,,0.00,weatherlink.com 1.10,2013-03-28 09:15:00,
2013-03-28 05:30:00,39.1,29.0,30.10,West,267,6.0,8.0,66,0.00,,,0.00,weatherlink.com 1.10,2013-03-28 09:30:00,
2013-03-28 05:45:00,38.9,28.0,30.11,West,281,4.0,9.0,66,0.00,,,0.00,weatherlink.com 1.10,2013-03-28 09:45:00,
2013-03-28 06:00:00,38.7,29.0,30.10,West,281,3.0,6.0,67,0.00,,,0.00,weatherlink.com 1.10,2013-03-28 10:00:00,
2013-03-28 06:15:00,38.5,28.0,30.11,WNW,290,2.0,8.0,66,0.00,,,0.00,weatherlink.com 1.10,2013-03-28 10:15:00,
2013-03-28 06:30:00,38.3,28.0,30.11,WNW,295,5.0,6.0,67,0.00,,,0.00,weatherlink.com 1.10,2013-03-28 10:30:00,
2013-03-28 06:45:00,38.1,28.0,30.11,WNW,297,3.0,7.0,67,0.00,,,0.00,weatherlink.com 1.10,2013-03-28 10:45:00,
2013-03-28 07:00:00,37.9,28.0,30.11,WNW,288,4.0,6.0,68,0.00,,,0.00,weatherlink.com 1.10,2013-03-28 11:00:00,
2013-03-28 07:15:00,38.4,28.0,30.12,NW,309,6.0,9.0,67,0.00,,,0.00,weatherlink.com 1.10,2013-03-28 11:15:00,
2013-03-28 07:30:00,39.2,29.0,30.11,NW,312,7.0,12.0,66,0.00,,,0.00,weatherlink.com 1.10,2013-03-28 11:30:00,
2013-03-28 07:45:00,39.8,29.0,30.12,NW,326,7.0,9.0,65,0.00,,,0.00,weatherlink.com 1.10,2013-03-28 11:45:00,
2013-03-28 08:01:00,40.0,29.0,30.12,WNW,294,7.0,13.0,64,0.00,,,0.00,weatherlink.com 1.10,2013-03-28 12:01:00,
2013-03-28 08:16:00,40.7,29.0,30.12,NW,304,13.0,16.0,63,0.00,,,0.00,weatherlink.com 1.10,2013-03-28 12:16:00,
2013-03-28 08:31:00,41.1,29.0,30.12,WNW,297,9.0,11.0,63,0.00,,,0.00,weatherlink.com 1.10,2013-03-28 12:31:00,
2013-03-28 08:46:00,41.6,29.0,30.12,NW,314,12.0,14.0,62,0.00,,,0.00,weatherlink.com 1.10,2013-03-28 12:46:00,
2013-03-28 09:01:00,42.7,30.0,30.12,NNW,338,12.0,19.0,61,0.00,,,0.00,weatherlink.com 1.10,2013-03-28 13:01:00,
2013-03-28 10:31:00,44.9,31.0,30.12,NNE,20,21.0,23.0,59,0.00,,,0.00,weatherlink.com 1.10,2013-03-28 14:31:00,
2013-03-28 10:46:00,45.0,30.0,30.12,NNE,21,16.0,24.0,57,0.00,,,0.00,weatherlink.com 1.10,2013-03-28 14:46:00,
2013-03-28 11:01:00,45.2,31.0,30.13,North,1,22.0,23.0,57,0.00,,,0.00,weatherlink.com 1.10,2013-03-28 15:01:00,
2013-03-28 11:16:00,45.1,30.0,30.13,North,359,16.0,23.0,57,0.00,,,0.00,weatherlink.com 1.10,2013-03-28 15:16:00,
2013-03-28 11:31:00,45.2,31.0,30.13,NW,310,14.0,23.0,58,0.00,,,0.00,weatherlink.com 1.10,2013-03-28 15:31:00,
2013-03-28 11:46:00,45.2,31.0,30.13,NNW,331,14.0,23.0,57,0.00,,,0.00,weatherlink.com 1.10,2013-03-28 15:46:00,
2013-03-28 12:01:00,45.5,31.0,30.13,North,354,10.0,22.0,58,0.00,,,0.00,weatherlink.com 1.10,2013-03-28 16:01:00,
2013-03-28 12:16:00,45.7,31.0,30.13,North,360,15.0,22.0,56,0.00,,,0.00,weatherlink.com 1.10,2013-03-28 16:16:00,
2013-03-28 12:31:00,45.6,31.0,30.13,NNE,16,24.0,24.0,57,0.00,,,0.00,weatherlink.com 1.10,2013-03-28 16:31:00,
2013-03-28 12:46:00,44.8,30.0,30.13,NNW,342,11.0,25.0,57,0.00,,,0.00,weatherlink.com 1.10,2013-03-28 16:46:00,
2013-03-28 13:01:00,45.1,31.0,30.13,NW,309,11.0,18.0,58,0.00,,,0.00,weatherlink.com 1.10,2013-03-28 17:01:00,
2013-03-28 13:16:00,45.2,31.0,30.13,NW,321,16.0,25.0,57,0.00,,,0.00,weatherlink.com 1.10,2013-03-28 17:16:00,
2013-03-28 13:31:00,45.6,32.0,30.12,NNE,23,6.0,19.0,59,0.00,,,0.00,weatherlink.com 1.10,2013-03-28 17:31:00,
2013-03-28 13:46:00,45.9,31.0,30.13,NNE,31,11.0,18.0,56,0.00,,,0.00,weatherlink.com 1.10,2013-03-28 17:46:00,
2013-03-28 14:01:00,46.0,30.0,30.12,North,11,17.0,27.0,54,0.00,,,0.00,weatherlink.com 1.10,2013-03-28 18:01:00,
2013-03-28 14:16:00,46.5,30.0,30.12,North,11,18.0,24.0,52,0.00,,,0.00,weatherlink.com 1.10,2013-03-28 18:16:00,
2013-03-28 14:31:00,46.7,28.0,30.12,North,351,20.0,25.0,49,0.00,,,0.00,weatherlink.com 1.10,2013-03-28 18:31:00,
2013-03-28 14:46:00,47.0,28.0,30.12,NW,314,14.0,22.0,48,0.00,,,0.00,weatherlink.com 1.10,2013-03-28 18:46:00,
2013-03-28 15:01:00,47.2,27.0,30.12,North,358,21.0,25.0,46,0.00,,,0.00,weatherlink.com 1.10,2013-03-28 19:01:00,
2013-03-28 15:16:00,46.9,27.0,30.12,NNE,27,12.0,24.0,47,0.00,,,0.00,weatherlink.com 1.10,2013-03-28 19:16:00,
2013-03-28 15:32:00,47.9,27.0,30.12,NW,312,18.0,31.0,44,0.00,,,0.00,weatherlink.com 1.10,2013-03-28 19:32:00,
2013-03-28 16:16:00,48.0,26.0,30.12,NW,319,11.0,20.0,43,0.00,,,0.00,weatherlink.com 1.10,2013-03-28 20:16:00,
2013-03-28 16:31:00,48.1,26.0,30.12,NW,323,10.0,22.0,43,0.00,,,0.00,weatherlink.com 1.10,2013-03-28 20:31:00,
2013-03-28 16:46:00,48.5,27.0,30.12,North,11,15.0,23.0,43,0.00,,,0.00,weatherlink.com 1.10,2013-03-28 20:46:00,
2013-03-28 17:01:00,48.3,27.0,30.13,NNW,328,14.0,22.0,43,0.00,,,0.00,weatherlink.com 1.10,2013-03-28 21:01:00,
2013-03-28 17:17:00,48.2,26.0,30.14,NNW,330,8.0,18.0,43,0.00,,,0.00,weatherlink.com 1.10,2013-03-28 21:17:00,
2013-03-28 17:32:00,48.3,27.0,30.14,NW,314,11.0,16.0,43,0.00,,,0.00,weatherlink.com 1.10,2013-03-28 21:32:00,
2013-03-28 17:47:00,48.3,27.0,30.14,North,349,7.0,15.0,43,0.00,,,0.00,weatherlink.com 1.10,2013-03-28 21:47:00,
2013-03-28 18:02:00,48.3,28.0,30.15,NW,326,9.0,16.0,45,0.00,,,0.00,weatherlink.com 1.10,2013-03-28 22:02:00,
2013-03-28 18:17:00,48.2,27.0,30.15,NW,315,8.0,18.0,44,0.00,,,0.00,weatherlink.com 1.10,2013-03-28 22:17:00,
2013-03-28 18:32:00,48.2,27.0,30.16,NNW,342,9.0,12.0,44,0.00,,,0.00,weatherlink.com 1.10,2013-03-28 22:32:00,
2013-03-28 18:47:00,47.9,29.0,30.16,NNW,331,8.0,13.0,48,0.00,,,0.00,weatherlink.com 1.10,2013-03-28 22:47:00,
2013-03-28 19:05:00,47.3,30.0,30.17,NW,304,10.0,12.0,52,0.00,,,0.00,weatherlink.com 1.10,2013-03-28 23:05:00,
2013-03-28 19:17:00,46.9,31.0,30.18,NW,308,9.0,17.0,54,0.00,,,0.00,weatherlink.com 1.10,2013-03-28 23:17:00,
2013-03-28 19:32:00,46.6,31.0,30.18,NNW,330,10.0,15.0,54,0.00,,,0.00,weatherlink.com 1.10,2013-03-28 23:32:00,
2013-03-28 19:47:00,46.4,31.0,30.19,NW,314,8.0,13.0,56,0.00,,,0.00,weatherlink.com 1.10,2013-03-28 23:47:00,
2013-03-28 20:02:00,46.3,31.0,30.19,NW,323,10.0,17.0,55,0.00,,,0.00,weatherlink.com 1.10,2013-03-29 00:02:00,
2013-03-28 20:17:00,46.1,31.0,30.20,North,349,10.0,15.0,57,0.00,,,0.00,weatherlink.com 1.10,2013-03-29 00:17:00,
2013-03-28 20:32:00,45.8,31.0,30.20,NNW,328,8.0,13.0,56,0.00,,,0.00,weatherlink.com 1.10,2013-03-29 00:32:00,
2013-03-28 21:02:00,45.5,31.0,30.21,NW,319,8.0,13.0,57,0.00,,,0.00,weatherlink.com 1.10,2013-03-29 01:02:00,
2013-03-28 21:17:00,45.5,31.0,30.22,NW,315,6.0,11.0,58,0.00,,,0.00,weatherlink.com 1.10,2013-03-29 01:17:00,
2013-03-28 21:32:00,45.6,31.0,30.22,NW,308,8.0,15.0,58,0.00,,,0.00,weatherlink.com 1.10,2013-03-29 01:32:00,
2013-03-28 21:47:00,45.3,31.0,30.22,NW,314,7.0,11.0,58,0.00,,,0.00,weatherlink.com 1.10,2013-03-29 01:47:00,
2013-03-28 22:02:00,45.1,31.0,30.22,NW,307,8.0,11.0,59,0.00,,,0.00,weatherlink.com 1.10,2013-03-29 02:02:00,
2013-03-28 22:17:00,44.8,31.0,30.23,NW,307,5.0,11.0,59,0.00,,,0.00,weatherlink.com 1.10,2013-03-29 02:17:00,
2013-03-28 22:32:00,44.9,31.0,30.23,NW,313,9.0,12.0,59,0.00,,,0.00,weatherlink.com 1.10,2013-03-29 02:32:00,
2013-03-28 22:47:00,44.8,31.0,30.23,NW,308,6.0,9.0,59,0.00,,,0.00,weatherlink.com 1.10,2013-03-29 02:47:00,
2013-03-28 23:02:00,44.8,31.0,30.23,NW,308,6.0,9.0,60,0.00,,,0.00,weatherlink.com 1.10,2013-03-29 03:02:00,
2013-03-28 23:17:00,44.8,31.0,30.23,WNW,285,4.0,9.0,59,0.00,,,0.00,weatherlink.com 1.10,2013-03-29 03:17:00,
2013-03-28 23:32:00,44.8,31.0,30.23,NW,307,4.0,11.0,60,0.00,,,0.00,weatherlink.com 1.10,2013-03-29 03:32:00,
2013-03-28 23:47:00,44.8,31.0,30.23,NW,310,6.0,11.0,60,0.00,,,0.00,weatherlink.com 1.10,2013-03-29 03:47:00,